Location: Key Biscayne
(25.6930°N, 80.1630°W)
Time: 20:52:40
(UTC-05:00)

Tiangong 1 - Visible Passes

Search period start: 25 February 2018 00:00
Search period end: 07 March 2018 00:00
Orbit: 244 x 265 km, 42.8° (Epoch: 25 February)

Date Brightness Start Highest point End Pass type
(mag) Time Alt. Az. Time Alt. Az. Time Alt. Az.
25 Feb 2.5 19:25:32 10° SSW 19:26:27 17° S 19:26:27 17° S visible
26 Feb 0.4 19:17:44 10° SW 19:19:57 48° SE 19:20:07 47° ESE visible
27 Feb 0.4 19:09:58 10° WSW 19:12:15 67° NW 19:13:25 23° NE visible
28 Feb 1.9 19:02:12 10° W 19:04:16 30° NW 19:06:19 10° NNE visible
01 Mar 2.8 18:54:24 10° WNW 18:56:02 17° NNW 18:57:40 10° NNE visible
02 Mar 3.3 18:46:52 10° NW 18:47:34 11° NNW 18:48:14 10° N visible
